Lid_Strength_Index
-1 -1 -2 -2 -2 -2 -2 -2 -1 -1 -2 -2 -2 -1 -1 -0 1 1 0 0 1 1 1 2 3 2 3 8 9 5 3 3 4 4 6 7 8 9 10 11 11 12 11 10 10 10 10
-1 -1 -2 -2 -2 -2 -2 -2 -2 -2 -2 -2 -2 -1 -0 0 1 1 0 -0 1 1 1 2 3 2 5 12 5 5 5 5 5 6 7 7 8 9 10 11 12 11 11 11 10 11 11
-2 -1 -2 -2 -2 -2 -2 -2 -2 -1 -1 -1 -2 -1 -0 -0 2 1 -0 -1 -0 0 1 2 2 4 8 10 5 5 5 6 6 6 8 7 7 9 10 12 10 12 14 12 12 11 12
-2 -1 -1 -1 -1 -2 -2 -2 -1 -1 -1 -1 -1 -1 -0 -0 -1 1 -0 -0 1 1 1 2 2 5 10 5 5 6 5 6 5 6 6 7 7 9 10 11 12 14 14 17 13 12 11
-2 -2 -1 -1 -1 -1 -1 -2 -2 -2 -1 -1 -1 -0 -0 -1 -1 -1 0 1 0 1 2 2 4 6 11 5 8 6 6 7 6 6 6 6 7 10 10 13 15 14 17 16 14 11 12
-2 -2 -1 -1 -1 -1 -1 -1 -1 -2 -2 -1 -1 -1 -1 -1 -1 -0 0 0 1 1 3 5 5 8 8 10 8 7 6 6 8 7 7 8 9 12 12 14 19 18 18 16 16 13 12
-1 -2 -1 -1 -0 -0 -1 -1 -0 -1 -1 -2 -2 -1 -1 -2 -0 1 2 4 6 8 7 9 9 10 9 7 6 7 6 7 7 8 12 11 14 16 14 13 13 14 14 14 12 10 12
-0 -1 -1 -1 -0 0 0 -0 -0 -0 -0 -0 -0 -0 0 -0 1 1 2 6 7 6 10 6 7 8 7 7 9 7 5 8 9 12 10 12 15 11 10 11 12 13 14 13 11 9 11
0 -0 -1 -1 -1 -0 0 0 1 0 0 0 0 -0 0 1 1 2 5 6 3 4 9 8 7 7 7 6 9 8 6 7 9 10 10 12 11 10 11 10 11 11 13 13 14 11 11
1 0 0 -1 -1 -1 0 1 1 1 1 1 1 1 1 1 3 3 5 3 3 4 12 11 9 8 6 6 8 5 5 7 8 10 9 10 9 10 10 11 10 13 11 12 13 14 19
1 1 1 0 -0 -0 0 0 1 1 2 2 2 2 1 1 3 4 4 3 4 6 19 10 9 5 5 7 7 6 4 5 9 9 10 12 11 11 11 10 10 12 10 12 12 14 15
2 2 2 1 1 -0 -0 -0 -0 1 2 2 3 2 2 2 3 4 3 4 5 13 21 13 8 8 7 6 6 5 6 5 5 8 9 10 8 10 10 9 10 10 12 13 13 15 20
2 2 2 2 1 1 0 0 -0 1 1 2 2 2 3 3 5 3 3 6 13 17 11 11 10 8 8 9 8 7 8 10 12 15 15 11 10 9 9 11 10 10 14 19 20 20 21
3 2 2 2 2 2 1 1 1 0 1 2 2 2 2 3 2 2 4 9 16 12 12 9 9 9 10 9 9 8 10 11 9 10 13 16 17 11 10 11 13 13 15 18 23 22 20
3 2 2 2 2 2 2 2 2 1 1 2 2 1 2 2 2 3 6 14 15 12 9 10 9 11 11 9 10 9 10 11 10 10 14 15 16 10 9 9 10 12 15 12 16 15 18
4 3 2 2 2 2 2 2 2 1 2 3 4 4 4 3 3 4 9 12 12 9 9 9 12 11 12 11 11 11 11 10 10 9 10 12 17 11 10 9 9 11 9 16 16 20 22
5 4 3 3 2 2 2 2 2 2 2 3 4 6 4 3 4 6 13 11 9 8 7 9 10 11 11 12 12 12 12 10 9 9 10 11 13 13 10 12 13 13 14 13 13 15 20
6 5 4 3 3 2 2 2 2 2 2 4 5 9 4 4 8 7 10 9 8 8 7 8 8 9 11 11 12 12 12 11 9 9 11 10 12 17 13 10 10 12 13 13 18 17 16
5 6 6 4 4 3 3 3 3 3 3 5 7 7 3 5 12 10 9 9 8 9 9 9 10 9 9 11 13 11 11 8 9 9 11 11 14 19 17 14 12 14 12 12 13 15 18
4 5 7 6 4 4 3 3 3 3 3 5 7 10 6 7 8 10 11 11 10 8 9 8 9 9 11 12 11 12 12 9 9 9 8 9 13 16 19 16 14 15 13 13 14 18 17
4 5 6 7 6 5 5 3 3 4 4 5 8 10 10 10 10 10 11 10 11 11 9 9 11 11 12 14 13 13 12 11 10 9 11 12 16 15 14 13 13 14 14 14 16 15 18
3 4 5 6 7 6 5 5 3 4 4 6 9 10 10 11 10 11 12 12 12 10 11 11 12 11 11 13 13 14 13 14 14 12 13 12 17 16 17 14 15 16 15 15 14 14 14
4 4 4 5 7 7 6 6 5 4 4 7 7 8 10 11 12 13 12 12 11 11 10 10 11 12 12 11 11 11 12 12 12 14 14 14 16 18 20 16 16 19 16 15 15 14 14
3 4 3 4 6 7 7 6 6 6 6 7 7 8 10 13 13 12 12 11 12 11 12 10 10 12 11 9 9 10 11 11 12 12 12 15 15 16 19 17 23 16 14 15 14 14 13
3 3 4 4 5 6 7 7 6 6 7 8 8 9 10 13 11 12 12 12 12 11 12 11 10 10 9 11 14 15 15 15 14 13 13 13 15 18 20 20 17 15 15 15 16 16 13
4 4 3 4 5 6 6 7 7 7 8 9 9 9 10 13 13 11 12 12 14 14 13 11 9 9 10 12 14 18 19 17 18 16 14 13 13 16 18 20 21 17 15 13 14 19 13
4 4 4 4 4 5 6 7 7 7 7 9 9 9 11 14 11 12 14 13 12 13 14 12 11 12 10 14 16 18 18 16 19 18 19 17 15 18 18 20 17 12 13 12 20 17 13
4 4 5 4 4 4 4 5 6 7 7 9 10 10 11 13 12 12 12 13 13 13 15 12 12 12 13 15 16 16 17 16 18 16 16 17 18 19 18 19 20 13 13 16 14 14 13
4 4 4 4 4 4 4 5 5 6 6 8 11 11 11 13 13 11 11 11 11 12 13 13 14 13 12 15 15 15 17 17 17 19 15 18 15 16 15 16 12 12 13 12 12 13 13